Time,TemperatureF,DewpointF,PressureIn,WindDirection,WindDirectionDegrees,WindSpeedMPH,WindSpeedGustMPH,Humidity,HourlyPrecipIn,Conditions,Clouds,dailyrainin,SoftwareType,DateUTC
2013-04-18 00:00:00,53.3,42.2,30.25,NE,43,0.0,0.0,66,0.00,,---,0.00,VWS V14.01,2013-04-18 04:00:00,
2013-04-18 00:01:00,53.3,42.2,30.25,NE,43,0.0,0.0,66,0.00,,---,0.00,VWS V14.01,2013-04-18 04:01:00,
2013-04-18 00:02:00,53.2,41.8,30.25,NE,43,0.0,0.0,65,0.00,,---,0.00,VWS V14.01,2013-04-18 04:02:00,
2013-04-18 00:07:00,53.1,42.1,30.25,NE,43,0.0,0.0,66,0.00,,---,0.00,VWS V14.01,2013-04-18 04:07:00,
2013-04-18 00:12:00,52.9,41.9,30.26,NE,43,0.0,0.0,66,0.00,,---,0.00,VWS V14.01,2013-04-18 04:12:00,
2013-04-18 00:17:00,52.8,42.2,30.26,NE,43,0.0,0.0,67,0.00,,---,0.00,VWS V14.01,2013-04-18 04:17:00,
2013-04-18 00:23:00,52.6,42.3,30.26,NE,43,0.0,0.0,68,0.00,,---,0.00,VWS V14.01,2013-04-18 04:23:00,
2013-04-18 00:28:00,52.4,42.2,30.26,NE,43,0.0,0.0,68,0.00,,---,0.00,VWS V14.01,2013-04-18 04:28:00,
2013-04-18 00:30:00,52.3,42.1,30.26,NE,43,0.0,0.0,68,0.00,,---,0.00,VWS V14.01,2013-04-18 04:30:00,
2013-04-18 00:33:00,52.3,42.1,30.26,NE,43,0.0,0.0,68,0.00,,---,0.00,VWS V14.01,2013-04-18 04:33:00,
2013-04-18 00:38:00,52.2,42.0,30.26,NE,43,0.0,0.0,68,0.00,,---,0.00,VWS V14.01,2013-04-18 04:38:00,
2013-04-18 00:43:00,52.1,41.9,30.26,NE,43,0.0,0.0,68,0.00,,---,0.00,VWS V14.01,2013-04-18 04:43:00,
2013-04-18 00:48:00,51.9,41.7,30.26,NE,43,0.0,0.0,68,0.00,,---,0.00,VWS V14.01,2013-04-18 04:48:00,
2013-04-18 00:53:00,51.8,42.0,30.26,NE,43,0.0,0.0,69,0.00,,---,0.00,VWS V14.01,2013-04-18 04:53:00,
2013-04-18 00:58:00,51.6,41.8,30.26,NE,43,0.0,0.0,69,0.00,,---,0.00,VWS V14.01,2013-04-18 04:58:00,
2013-04-18 01:00:00,51.6,41.8,30.26,NE,43,0.0,0.0,69,0.00,,---,0.00,VWS V14.01,2013-04-18 05:00:00,
2013-04-18 01:03:00,51.5,42.0,30.26,NE,43,0.0,0.0,70,0.00,,---,0.00,VWS V14.01,2013-04-18 05:03:00,
2013-04-18 01:08:00,51.3,41.9,30.25,NE,43,0.0,0.0,70,0.00,,---,0.00,VWS V14.01,2013-04-18 05:08:00,
2013-04-18 01:13:00,51.1,41.7,30.25,NE,43,0.0,0.0,70,0.00,,---,0.00,VWS V14.01,2013-04-18 05:13:00,
2013-04-18 01:18:00,50.9,41.5,30.25,NE,43,0.0,0.0,70,0.00,,---,0.00,VWS V14.01,2013-04-18 05:18:00,
2013-04-18 01:23:00,50.8,41.8,30.25,NE,43,0.0,0.0,71,0.00,,---,0.00,VWS V14.01,2013-04-18 05:23:00,
2013-04-18 01:29:00,50.6,41.6,30.25,NE,43,0.0,0.0,71,0.00,,---,0.00,VWS V14.01,2013-04-18 05:29:00,
2013-04-18 01:30:00,50.6,41.6,30.25,NE,43,0.0,0.0,71,0.00,,---,0.00,VWS V14.01,2013-04-18 05:30:00,
2013-04-18 01:34:00,50.5,41.5,30.25,NE,43,0.0,0.0,71,0.00,,---,0.00,VWS V14.01,2013-04-18 05:34:00,
2013-04-18 01:39:00,50.4,41.7,30.25,NE,43,0.0,0.0,72,0.00,,---,0.00,VWS V14.01,2013-04-18 05:39:00,
2013-04-18 01:44:00,50.2,41.5,30.25,NE,43,0.0,0.0,72,0.00,,---,0.00,VWS V14.01,2013-04-18 05:44:00,
2013-04-18 01:49:00,50.1,41.4,30.25,NE,43,0.0,0.0,72,0.00,,---,0.00,VWS V14.01,2013-04-18 05:49:00,
2013-04-18 01:54:00,50.0,41.3,30.25,NE,43,0.0,0.0,72,0.00,,---,0.00,VWS V14.01,2013-04-18 05:54:00,
2013-04-18 01:59:00,49.9,41.2,30.25,NE,43,0.0,0.0,72,0.00,,---,0.00,VWS V14.01,2013-04-18 05:59:00,
2013-04-18 02:00:00,49.9,41.2,30.25,NE,43,0.0,0.0,72,0.00,,---,0.00,VWS V14.01,2013-04-18 06:00:00,
2013-04-18 02:04:00,49.9,41.6,30.24,NE,43,0.0,0.0,73,0.00,,---,0.00,VWS V14.01,2013-04-18 06:04:00,
2013-04-18 02:09:00,49.9,41.6,30.24,NE,43,0.0,0.0,73,0.00,,---,0.00,VWS V14.01,2013-04-18 06:09:00,
2013-04-18 02:14:00,49.8,41.5,30.24,NE,43,0.0,0.0,73,0.00,,---,0.00,VWS V14.01,2013-04-18 06:14:00,
2013-04-18 02:19:00,49.7,41.4,30.25,NE,43,0.0,0.0,73,0.00,,---,0.00,VWS V14.01,2013-04-18 06:19:00,
2013-04-18 02:24:00,49.6,41.3,30.25,NE,43,0.0,0.0,73,0.00,,---,0.00,VWS V14.01,2013-04-18 06:24:00,
2013-04-18 02:29:00,49.6,41.7,30.25,NE,43,0.0,0.0,74,0.00,,---,0.00,VWS V14.01,2013-04-18 06:29:00,
2013-04-18 02:30:00,49.6,41.3,30.25,NE,43,0.0,0.0,73,0.00,,---,0.00,VWS V14.01,2013-04-18 06:30:00,
2013-04-18 02:34:00,49.6,41.3,30.25,NE,43,0.0,0.0,73,0.00,,---,0.00,VWS V14.01,2013-04-18 06:34:00,
2013-04-18 02:40:00,49.7,41.4,30.25,NE,43,0.0,0.0,73,0.00,,---,0.00,VWS V14.01,2013-04-18 06:40:00,
2013-04-18 02:45:00,49.8,41.2,30.25,NE,43,0.0,0.0,72,0.00,,---,0.00,VWS V14.01,2013-04-18 06:45:00,
2013-04-18 02:50:00,50.0,41.3,30.25,NE,43,0.0,0.0,72,0.00,,---,0.00,VWS V14.01,2013-04-18 06:50:00,
2013-04-18 02:55:00,50.0,41.3,30.25,NE,43,0.0,0.0,72,0.00,,---,0.00,VWS V14.01,2013-04-18 06:55:00,
2013-04-18 03:00:00,49.9,41.2,30.25,NE,43,0.0,0.0,72,0.00,,---,0.00,VWS V14.01,2013-04-18 07:00:00,
2013-04-18 03:05:00,49.8,41.5,30.25,NE,43,0.0,0.0,73,0.00,,---,0.00,VWS V14.01,2013-04-18 07:05:00,
2013-04-18 03:10:00,49.7,41.4,30.24,NE,43,0.0,0.0,73,0.00,,---,0.00,VWS V14.01,2013-04-18 07:10:00,
2013-04-18 03:15:00,49.6,41.3,30.24,NE,43,0.0,0.0,73,0.00,,---,0.00,VWS V14.01,2013-04-18 07:15:00,
2013-04-18 03:20:00,49.8,41.5,30.24,NE,43,0.0,0.0,73,0.00,,---,0.00,VWS V14.01,2013-04-18 07:20:00,
2013-04-18 03:26:00,49.9,41.6,30.24,NE,43,0.0,0.0,73,0.00,,---,0.00,VWS V14.01,2013-04-18 07:26:00,
2013-04-18 03:30:00,49.8,41.5,30.25,NE,43,0.0,0.0,73,0.00,,---,0.00,VWS V14.01,2013-04-18 07:30:00,
2013-04-18 03:31:00,49.8,41.5,30.25,NE,43,0.0,0.0,73,0.00,,---,0.00,VWS V14.01,2013-04-18 07:31:00,
2013-04-18 03:36:00,49.8,41.9,30.24,NE,43,0.0,0.0,74,0.00,,---,0.00,VWS V14.01,2013-04-18 07:36:00,
2013-04-18 03:41:00,49.7,41.8,30.24,NE,43,0.0,0.0,74,0.00,,---,0.00,VWS V14.01,2013-04-18 07:41:00,
2013-04-18 03:46:00,49.5,41.6,30.24,NE,43,0.0,0.0,74,0.00,,---,0.00,VWS V14.01,2013-04-18 07:46:00,
2013-04-18 03:51:00,49.4,41.5,30.24,NE,43,0.0,0.0,74,0.00,,---,0.00,VWS V14.01,2013-04-18 07:51:00,
2013-04-18 03:56:00,49.2,41.6,30.24,NE,43,0.0,0.0,75,0.00,,---,0.00,VWS V14.01,2013-04-18 07:56:00,
2013-04-18 04:00:00,49.2,41.3,30.24,NE,43,0.0,0.0,74,0.00,,---,0.00,VWS V14.01,2013-04-18 08:00:00,
2013-04-18 04:01:00,49.2,41.3,30.24,NE,43,0.0,0.0,74,0.00,,---,0.00,VWS V14.01,2013-04-18 08:01:00,
2013-04-18 04:06:00,49.1,41.2,30.25,NE,43,0.0,0.0,74,0.00,,---,0.00,VWS V14.01,2013-04-18 08:06:00,
2013-04-18 04:12:00,49.1,41.2,30.25,NE,43,0.0,0.0,74,0.00,,---,0.00,VWS V14.01,2013-04-18 08:12:00,
2013-04-18 04:17:00,49.1,41.2,30.24,NE,43,0.0,0.0,74,0.00,,---,0.00,VWS V14.01,2013-04-18 08:17:00,
2013-04-18 04:22:00,48.9,41.0,30.24,NE,43,0.0,0.0,74,0.00,,---,0.00,VWS V14.01,2013-04-18 08:22:00,
2013-04-18 04:27:00,48.6,41.4,30.24,NE,43,0.0,0.0,76,0.00,,---,0.00,VWS V14.01,2013-04-18 08:27:00,
2013-04-18 04:30:00,48.4,41.2,30.24,NE,43,0.0,0.0,76,0.00,,---,0.00,VWS V14.01,2013-04-18 08:30:00,
2013-04-18 04:32:00,48.4,41.2,30.24,NE,43,0.0,0.0,76,0.00,,---,0.00,VWS V14.01,2013-04-18 08:32:00,
2013-04-18 04:37:00,48.3,41.1,30.24,NE,43,0.0,0.0,76,0.00,,---,0.00,VWS V14.01,2013-04-18 08:37:00,
2013-04-18 04:42:00,48.2,41.0,30.24,NE,43,0.0,0.0,76,0.00,,---,0.00,VWS V14.01,2013-04-18 08:42:00,
2013-04-18 04:47:00,48.1,40.9,30.23,NE,43,0.0,0.0,76,0.00,,---,0.00,VWS V14.01,2013-04-18 08:47:00,
2013-04-18 04:52:00,47.8,41.0,30.23,West,275,0.0,2.0,77,0.00,,---,0.00,VWS V14.01,2013-04-18 08:52:00,
2013-04-18 04:57:00,47.7,40.8,30.23,West,275,0.0,2.0,77,0.00,,---,0.00,VWS V14.01,2013-04-18 08:57:00,
2013-04-18 05:00:00,47.6,40.8,30.23,West,275,0.0,2.0,77,0.00,,---,0.00,VWS V14.01,2013-04-18 09:00:00,
2013-04-18 05:02:00,47.6,40.8,30.23,West,275,0.0,0.0,77,0.00,,---,0.00,VWS V14.01,2013-04-18 09:02:00,
2013-04-18 05:07:00,47.6,40.8,30.23,West,275,0.0,1.0,77,0.00,,---,0.00,VWS V14.01,2013-04-18 09:07:00,
2013-04-18 05:12:00,47.6,40.8,30.24,West,275,0.0,1.0,77,0.00,,---,0.00,VWS V14.01,2013-04-18 09:12:00,
2013-04-18 05:17:00,47.7,40.5,30.24,West,275,0.0,1.0,76,0.00,,---,0.00,VWS V14.01,2013-04-18 09:17:00,
2013-04-18 05:22:00,47.7,40.5,30.24,West,275,0.0,1.0,76,0.00,,---,0.00,VWS V14.01,2013-04-18 09:22:00,
2013-04-18 05:28:00,47.6,40.4,30.24,West,275,0.0,1.0,76,0.00,,---,0.00,VWS V14.01,2013-04-18 09:28:00,
2013-04-18 05:30:00,47.7,40.5,30.24,West,275,0.0,1.0,76,0.00,,---,0.00,VWS V14.01,2013-04-18 09:30:00,
2013-04-18 05:33:00,47.6,40.4,30.24,West,275,0.0,0.0,76,0.00,,---,0.00,VWS V14.01,2013-04-18 09:33:00,
2013-04-18 05:38:00,47.6,40.4,30.23,NNE,30,0.0,2.0,76,0.00,,---,0.00,VWS V14.01,2013-04-18 09:38:00,
2013-04-18 05:43:00,47.6,40.4,30.24,NNE,30,0.0,2.0,76,0.00,,---,0.00,VWS V14.01,2013-04-18 09:43:00,
2013-04-18 05:48:00,47.4,40.2,30.24,North,360,0.0,2.0,76,0.00,,---,0.00,VWS V14.01,2013-04-18 09:48:00,
2013-04-18 05:53:00,47.1,40.3,30.24,North,360,0.0,2.0,77,0.00,,---,0.00,VWS V14.01,2013-04-18 09:53:00,
2013-04-18 05:58:00,46.9,40.1,30.24,North,360,0.0,2.0,77,0.00,,---,0.00,VWS V14.01,2013-04-18 09:58:00,
2013-04-18 06:00:00,46.8,40.0,30.23,North,360,0.0,2.0,77,0.00,,---,0.00,VWS V14.01,2013-04-18 10:00:00,
2013-04-18 06:03:00,46.7,39.9,30.24,North,360,0.0,0.0,77,0.00,,---,0.00,VWS V14.01,2013-04-18 10:03:00,
2013-04-18 06:08:00,46.5,39.7,30.24,North,360,0.0,1.0,77,0.00,,---,0.00,VWS V14.01,2013-04-18 10:08:00,
2013-04-18 06:13:00,46.5,39.7,30.24,NW,322,0.0,2.0,77,0.00,,---,0.00,VWS V14.01,2013-04-18 10:13:00,
2013-04-18 06:18:00,46.5,39.7,30.25,NW,321,0.0,2.0,77,0.00,,---,0.00,VWS V14.01,2013-04-18 10:18:00,
2013-04-18 06:23:00,46.5,39.7,30.25,NW,321,0.0,2.0,77,0.00,,---,0.00,VWS V14.01,2013-04-18 10:23:00,
2013-04-18 06:28:00,46.6,39.8,30.25,NW,321,0.0,2.0,77,0.00,,---,0.00,VWS V14.01,2013-04-18 10:28:00,
2013-04-18 06:30:00,46.7,39.9,30.25,NNW,332,0.0,2.0,77,0.00,,---,0.00,VWS V14.01,2013-04-18 10:30:00,
2013-04-18 06:34:00,46.9,40.4,30.26,NNW,335,0.0,1.0,78,0.00,,---,0.00,VWS V14.01,2013-04-18 10:34:00,
2013-04-18 06:39:00,47.0,40.5,30.26,NNW,338,0.0,2.0,78,0.00,,---,0.00,VWS V14.01,2013-04-18 10:39:00,
2013-04-18 06:44:00,47.1,40.6,30.26,NE,37,1.0,3.0,78,0.00,,---,0.00,VWS V14.01,2013-04-18 10:44:00,
2013-04-18 06:49:00,47.2,40.7,30.26,NE,53,0.0,3.0,78,0.00,,---,0.00,VWS V14.01,2013-04-18 10:49:00,
2013-04-18 06:54:00,47.3,40.8,30.26,NE,49,1.0,3.0,78,0.00,,---,0.00,VWS V14.01,2013-04-18 10:54:00,
2013-04-18 06:59:00,47.6,41.4,30.25,WNW,301,0.0,3.0,79,0.00,,---,0.00,VWS V14.01,2013-04-18 10:59:00,
2013-04-18 07:00:00,47.6,41.4,30.25,NW,309,0.0,3.0,79,0.00,,---,0.00,VWS V14.01,2013-04-18 11:00:00,
2013-04-18 07:04:00,47.7,41.8,30.26,NW,310,1.0,1.0,80,0.00,,---,0.00,VWS V14.01,2013-04-18 11:04:00,
2013-04-18 07:09:00,47.8,41.9,30.26,NW,320,0.0,1.0,80,0.00,,---,0.00,VWS V14.01,2013-04-18 11:09:00,
2013-04-18 07:14:00,47.9,42.0,30.26,NW,320,1.0,1.0,80,0.00,,---,0.00,VWS V14.01,2013-04-18 11:14:00,
2013-04-18 07:19:00,48.1,42.5,30.26,NW,321,0.0,2.0,81,0.00,,---,0.00,VWS V14.01,2013-04-18 11:19:00,
2013-04-18 07:24:00,48.3,43.1,30.26,WNW,286,2.0,3.0,82,0.00,,---,0.00,VWS V14.01,2013-04-18 11:24:00,
2013-04-18 07:29:00,48.5,43.6,30.26,NW,319,2.0,3.0,83,0.00,,---,0.00,VWS V14.01,2013-04-18 11:29:00,
2013-04-18 07:30:00,48.5,43.6,30.26,NW,319,0.0,3.0,83,0.00,,---,0.00,VWS V14.01,2013-04-18 11:30:00,
2013-04-18 07:34:00,48.7,44.1,30.26,NW,319,0.0,2.0,84,0.00,,---,0.00,VWS V14.01,2013-04-18 11:34:00,
2013-04-18 07:39:00,48.9,44.6,30.26,SW,216,3.0,4.0,85,0.00,,---,0.00,VWS V14.01,2013-04-18 11:39:00,
2013-04-18 07:44:00,49.0,44.7,30.26,NNW,335,2.0,4.0,85,0.00,,---,0.00,VWS V14.01,2013-04-18 11:44:00,
2013-04-18 07:49:00,49.1,45.1,30.27,WSW,242,2.0,4.0,86,0.00,,---,0.00,VWS V14.01,2013-04-18 11:49:00,
2013-04-18 07:54:00,49.2,45.2,30.26,WNW,287,1.0,4.0,86,0.00,,---,0.00,VWS V14.01,2013-04-18 11:54:00,
2013-04-18 08:00:00,49.2,45.5,30.26,NNW,338,0.0,4.0,87,0.00,,---,0.00,VWS V14.01,2013-04-18 12:00:00,
2013-04-18 08:05:00,49.3,45.3,30.27,WSW,240,2.0,5.0,86,0.00,,---,0.00,VWS V14.01,2013-04-18 12:05:00,
2013-04-18 08:10:00,49.4,45.4,30.26,NNW,340,0.0,5.0,86,0.00,,---,0.00,VWS V14.01,2013-04-18 12:10:00,
2013-04-18 08:15:00,49.6,45.3,30.26,NW,315,1.0,5.0,85,0.00,,---,0.00,VWS V14.01,2013-04-18 12:15:00,
2013-04-18 08:20:00,49.6,45.6,30.26,NW,316,0.0,5.0,86,0.00,,---,0.00,VWS V14.01,2013-04-18 12:20:00,
2013-04-18 08:25:00,49.7,45.7,30.26,NW,323,0.0,5.0,86,0.00,,---,0.00,VWS V14.01,2013-04-18 12:25:00,
2013-04-18 08:30:00,49.8,45.5,30.26,NW,313,2.0,5.0,85,0.00,,---,0.00,VWS V14.01,2013-04-18 12:30:00,
2013-04-18 08:35:00,49.9,45.3,30.27,NW,309,2.0,5.0,84,0.00,,---,0.00,VWS V14.01,2013-04-18 12:35:00,
2013-04-18 08:40:00,49.9,45.3,30.26,North,360,0.0,5.0,84,0.00,,---,0.00,VWS V14.01,2013-04-18 12:40:00,
2013-04-18 08:45:00,50.1,45.5,30.26,WSW,242,0.0,5.0,84,0.00,,---,0.00,VWS V14.01,2013-04-18 12:45:00,
2013-04-18 08:50:00,50.1,45.5,30.27,North,9,1.0,5.0,84,0.00,,---,0.00,VWS V14.01,2013-04-18 12:50:00,
2013-04-18 08:55:00,50.2,45.6,30.27,West,275,0.0,5.0,84,0.00,,---,0.00,VWS V14.01,2013-04-18 12:55:00,
2013-04-18 09:00:00,50.3,45.3,30.27,WNW,282,3.0,3.0,83,0.00,,---,0.00,VWS V14.01,2013-04-18 13:00:00,
2013-04-18 09:05:00,50.3,45.3,30.27,North,5,0.0,4.0,83,0.00,,---,0.00,VWS V14.01,2013-04-18 13:05:00,
2013-04-18 09:10:00,50.3,45.3,30.27,NNW,337,0.0,4.0,83,0.00,,---,0.00,VWS V14.01,2013-04-18 13:10:00,
2013-04-18 09:15:00,50.5,45.5,30.27,North,11,3.0,4.0,83,0.00,,---,0.00,VWS V14.01,2013-04-18 13:15:00,
2013-04-18 09:21:00,50.7,45.7,30.27,North,11,2.0,5.0,83,0.00,,---,0.00,VWS V14.01,2013-04-18 13:21:00,
2013-04-18 09:26:00,50.8,45.5,30.27,North,360,0.0,6.0,82,0.00,,---,0.00,VWS V14.01,2013-04-18 13:26:00,
2013-04-18 09:30:00,50.9,45.6,30.27,NW,321,0.0,6.0,82,0.00,,---,0.00,VWS V14.01,2013-04-18 13:30:00,
2013-04-18 09:31:00,51.0,45.7,30.27,NNE,22,4.0,4.0,82,0.00,,---,0.00,VWS V14.01,2013-04-18 13:31:00,
2013-04-18 09:36:00,51.3,45.7,30.27,North,5,0.0,4.0,81,0.00,,---,0.00,VWS V14.01,2013-04-18 13:36:00,
2013-04-18 09:41:00,51.7,46.1,30.27,NNE,28,0.0,6.0,81,0.00,,---,0.00,VWS V14.01,2013-04-18 13:41:00,
2013-04-18 09:46:00,51.9,45.9,30.27,NNW,345,1.0,6.0,80,0.00,,---,0.00,VWS V14.01,2013-04-18 13:46:00,
2013-04-18 09:51:00,52.0,45.7,30.27,SW,219,0.0,6.0,79,0.00,,---,0.00,VWS V14.01,2013-04-18 13:51:00,
2013-04-18 09:56:00,52.1,45.5,30.27,NNE,31,4.0,6.0,78,0.00,,---,0.00,VWS V14.01,2013-04-18 13:56:00,
2013-04-18 10:00:00,52.3,46.0,30.27,North,5,4.0,6.0,79,0.00,,---,0.00,VWS V14.01,2013-04-18 14:00:00,
2013-04-18 10:02:00,52.4,45.8,30.27,WNW,301,0.0,5.0,78,0.00,,---,0.00,VWS V14.01,2013-04-18 14:02:00,
2013-04-18 10:07:00,53.0,46.0,30.26,WNW,288,2.0,5.0,77,0.00,,---,0.00,VWS V14.01,2013-04-18 14:07:00,
2013-04-18 10:12:00,53.1,45.4,30.26,NNE,28,4.0,6.0,75,0.00,,---,0.00,VWS V14.01,2013-04-18 14:12:00,
2013-04-18 10:17:00,53.1,45.4,30.27,North,351,1.0,6.0,75,0.00,,---,0.00,VWS V14.01,2013-04-18 14:17:00,
2013-04-18 10:22:00,53.1,45.0,30.27,NNE,22,3.0,6.0,74,0.00,,---,0.00,VWS V14.01,2013-04-18 14:22:00,
2013-04-18 10:27:00,53.2,44.8,30.27,NNW,344,0.0,6.0,73,0.00,,---,0.00,VWS V14.01,2013-04-18 14:27:00,
2013-04-18 10:30:00,53.3,44.9,30.27,NNW,341,2.0,6.0,73,0.00,,---,0.00,VWS V14.01,2013-04-18 14:30:00,
2013-04-18 10:32:00,53.3,44.9,30.27,WNW,302,1.0,5.0,73,0.00,,---,0.00,VWS V14.01,2013-04-18 14:32:00,
2013-04-18 10:37:00,53.2,44.8,30.27,South,183,1.0,5.0,73,0.00,,---,0.00,VWS V14.01,2013-04-18 14:37:00,
2013-04-18 10:42:00,53.3,44.5,30.27,WNW,283,1.0,6.0,72,0.00,,---,0.00,VWS V14.01,2013-04-18 14:42:00,
2013-04-18 10:47:00,53.5,45.1,30.27,NW,311,4.0,6.0,73,0.00,,---,0.00,VWS V14.01,2013-04-18 14:47:00,
2013-04-18 10:53:00,54.1,45.7,30.26,SW,234,1.0,6.0,73,0.00,,---,0.00,VWS V14.01,2013-04-18 14:53:00,
2013-04-18 10:58:00,54.2,45.4,30.26,WNW,289,0.0,6.0,72,0.00,,---,0.00,VWS V14.01,2013-04-18 14:58:00,
2013-04-18 11:00:00,54.2,45.0,30.27,NNE,17,2.0,6.0,71,0.00,,---,0.00,VWS V14.01,2013-04-18 15:00:00,
2013-04-18 11:03:00,54.3,45.5,30.27,SW,218,0.0,4.0,72,0.00,,---,0.00,VWS V14.01,2013-04-18 15:03:00,
2013-04-18 11:08:00,54.3,45.5,30.28,NNW,332,2.0,6.0,72,0.00,,---,0.00,VWS V14.01,2013-04-18 15:08:00,
2013-04-18 11:13:00,54.3,45.5,30.28,WNW,284,1.0,6.0,72,0.00,,---,0.00,VWS V14.01,2013-04-18 15:13:00,
2013-04-18 11:18:00,54.5,45.7,30.27,NW,323,5.0,6.0,72,0.00,,---,0.00,VWS V14.01,2013-04-18 15:18:00,
2013-04-18 11:23:00,54.4,45.6,30.27,North,9,1.0,6.0,72,0.00,,---,0.00,VWS V14.01,2013-04-18 15:23:00,
2013-04-18 11:28:00,54.4,45.6,30.27,WNW,302,0.0,6.0,72,0.00,,---,0.00,VWS V14.01,2013-04-18 15:28:00,
2013-04-18 11:30:00,54.5,46.0,30.27,NNW,335,0.0,6.0,73,0.00,,---,0.00,VWS V14.01,2013-04-18 15:30:00,
2013-04-18 11:33:00,54.7,46.2,30.27,NE,42,1.0,3.0,73,0.00,,---,0.00,VWS V14.01,2013-04-18 15:33:00,
2013-04-18 11:38:00,54.9,46.1,30.27,WNW,292,2.0,4.0,72,0.00,,---,0.00,VWS V14.01,2013-04-18 15:38:00,
2013-04-18 11:43:00,54.9,46.4,30.26,NNE,13,4.0,4.0,73,0.00,,---,0.00,VWS V14.01,2013-04-18 15:43:00,
2013-04-18 11:48:00,55.1,46.2,30.26,West,266,0.0,4.0,72,0.00,,---,0.00,VWS V14.01,2013-04-18 15:48:00,
2013-04-18 11:53:00,55.3,46.4,30.26,NW,313,0.0,4.0,72,0.00,,---,0.00,VWS V14.01,2013-04-18 15:53:00,
2013-04-18 11:58:00,55.4,46.5,30.25,South,176,3.0,5.0,72,0.00,,---,0.00,VWS V14.01,2013-04-18 15:58:00,
2013-04-18 12:00:00,55.5,46.6,30.25,NNE,16,0.0,5.0,72,0.00,,---,0.00,VWS V14.01,2013-04-18 16:00:00,
2013-04-18 12:04:00,55.8,46.5,30.25,NE,44,3.0,5.0,71,0.00,,---,0.00,VWS V14.01,2013-04-18 16:04:00,
2013-04-18 12:09:00,55.8,46.2,30.25,NW,311,1.0,7.0,70,0.00,,---,0.00,VWS V14.01,2013-04-18 16:09:00,
2013-04-18 12:14:00,55.7,46.5,30.25,NNW,343,0.0,7.0,71,0.00,,---,0.00,VWS V14.01,2013-04-18 16:14:00,
2013-04-18 12:19:00,55.7,45.7,30.25,NNE,22,3.0,7.0,69,0.00,,---,0.00,VWS V14.01,2013-04-18 16:19:00,
2013-04-18 12:24:00,55.7,45.7,30.25,SW,232,5.0,7.0,69,0.00,,---,0.00,VWS V14.01,2013-04-18 16:24:00,
2013-04-18 12:29:00,55.5,45.5,30.25,NNE,16,3.0,7.0,69,0.00,,---,0.00,VWS V14.01,2013-04-18 16:29:00,
2013-04-18 12:30:00,55.5,45.5,30.25,NE,40,10.0,10.0,69,0.00,,---,0.00,VWS V14.01,2013-04-18 16:30:00,
2013-04-18 12:34:00,55.4,46.2,30.25,SSW,211,0.0,10.0,71,0.00,,---,0.00,VWS V14.01,2013-04-18 16:34:00,
2013-04-18 12:39:00,55.4,46.2,30.25,NNW,344,1.0,10.0,71,0.00,,---,0.00,VWS V14.01,2013-04-18 16:39:00,
2013-04-18 12:44:00,55.5,46.3,30.24,NNW,342,3.0,12.0,71,0.00,,---,0.00,VWS V14.01,2013-04-18 16:44:00,
2013-04-18 12:49:00,55.2,46.3,30.24,WSW,254,0.0,12.0,72,0.00,,---,0.00,VWS V14.01,2013-04-18 16:49:00,
2013-04-18 12:54:00,55.1,46.2,30.25,NNE,21,3.0,12.0,72,0.00,,---,0.00,VWS V14.01,2013-04-18 16:54:00,
2013-04-18 12:59:00,55.0,46.5,30.25,NW,312,0.0,12.0,73,0.00,,---,0.00,VWS V14.01,2013-04-18 16:59:00,
2013-04-18 13:00:00,55.0,46.5,30.25,West,280,2.0,12.0,73,0.00,,---,0.00,VWS V14.01,2013-04-18 17:00:00,
2013-04-18 13:05:00,54.9,46.4,30.24,SW,234,3.0,5.0,73,0.00,,---,0.00,VWS V14.01,2013-04-18 17:05:00,
2013-04-18 13:10:00,54.9,46.4,30.24,West,271,0.0,6.0,73,0.00,,---,0.00,VWS V14.01,2013-04-18 17:10:00,
2013-04-18 13:15:00,54.8,46.7,30.24,West,275,1.0,6.0,74,0.00,,---,0.00,VWS V14.01,2013-04-18 17:15:00,
2013-04-18 13:20:00,54.5,46.8,30.23,WNW,288,1.0,6.0,75,0.00,,---,0.00,VWS V14.01,2013-04-18 17:20:00,
2013-04-18 13:25:00,54.2,46.8,30.23,ENE,67,1.0,6.0,76,0.00,,---,0.00,VWS V14.01,2013-04-18 17:25:00,
2013-04-18 13:30:00,53.9,47.5,30.23,SW,218,2.0,7.0,79,0.00,,---,0.00,VWS V14.01,2013-04-18 17:30:00,
2013-04-18 13:35:00,53.6,47.9,30.23,WSW,250,0.0,2.0,81,0.00,,---,0.00,VWS V14.01,2013-04-18 17:35:00,
2013-04-18 13:40:00,53.3,48.3,30.23,NW,321,0.0,3.0,83,0.00,,---,0.00,VWS V14.01,2013-04-18 17:40:00,
2013-04-18 13:45:00,53.2,48.5,30.22,WSW,242,0.0,4.0,84,0.00,,---,0.00,VWS V14.01,2013-04-18 17:45:00,
2013-04-18 13:50:00,53.1,48.7,30.23,NW,322,3.0,5.0,85,0.00,,---,0.00,VWS V14.01,2013-04-18 17:50:00,
2013-04-18 13:55:00,52.7,48.3,30.23,NNE,15,2.0,7.0,85,0.00,,---,0.00,VWS V14.01,2013-04-18 17:55:00,
2013-04-18 14:00:00,52.4,48.3,30.22,NNW,344,1.0,7.0,86,0.00,,---,0.00,VWS V14.01,2013-04-18 18:00:00,
2013-04-18 14:01:00,52.4,48.3,30.22,North,11,0.0,2.0,86,0.00,,---,0.00,VWS V14.01,2013-04-18 18:01:00,
2013-04-18 14:06:00,52.2,48.2,30.22,North,11,0.0,4.0,86,0.00,,---,0.00,VWS V14.01,2013-04-18 18:06:00,
2013-04-18 14:11:00,52.1,48.0,30.22,NW,313,2.0,4.0,86,0.00,,---,0.00,VWS V14.01,2013-04-18 18:11:00,
2013-04-18 14:16:00,52.0,48.0,30.22,NNW,340,1.0,4.0,86,0.00,,---,0.00,VWS V14.01,2013-04-18 18:16:00,
2013-04-18 14:21:00,51.9,47.8,30.22,NW,311,0.0,4.0,86,0.00,,---,0.00,VWS V14.01,2013-04-18 18:21:00,
2013-04-18 14:26:00,51.9,47.8,30.22,NW,315,0.0,4.0,86,0.00,,---,0.00,VWS V14.01,2013-04-18 18:26:00,
2013-04-18 14:30:00,51.9,48.2,30.22,North,351,0.0,4.0,87,0.00,,---,0.00,VWS V14.01,2013-04-18 18:30:00,
2013-04-18 14:31:00,51.9,48.2,30.22,North,351,2.0,2.0,87,0.00,,---,0.00,VWS V14.01,2013-04-18 18:31:00,
2013-04-18 14:36:00,52.0,48.6,30.21,WSW,254,0.0,4.0,88,0.00,,---,0.00,VWS V14.01,2013-04-18 18:36:00,
2013-04-18 14:41:00,51.9,48.2,30.21,NNW,331,1.0,6.0,87,0.00,,---,0.00,VWS V14.01,2013-04-18 18:41:00,
2013-04-18 14:46:00,52.0,48.6,30.20,WSW,247,0.0,6.0,88,0.00,,---,0.00,VWS V14.01,2013-04-18 18:46:00,
2013-04-18 14:51:00,52.3,48.9,30.20,NNE,21,0.0,6.0,88,0.00,,---,0.00,VWS V14.01,2013-04-18 18:51:00,
2013-04-18 14:56:00,52.5,48.8,30.20,NNE,30,3.0,6.0,87,0.00,,---,0.00,VWS V14.01,2013-04-18 18:56:00,
2013-04-18 15:00:00,52.6,48.5,30.20,NNE,22,0.0,6.0,86,0.00,,---,0.00,VWS V14.01,2013-04-18 19:00:00,
2013-04-18 15:02:00,52.6,48.5,30.20,SW,230,2.0,4.0,86,0.00,,---,0.00,VWS V14.01,2013-04-18 19:02:00,
2013-04-18 15:07:00,52.5,48.4,30.20,NW,307,2.0,4.0,86,0.00,,---,0.00,VWS V14.01,2013-04-18 19:07:00,
2013-04-18 15:12:00,52.3,48.2,30.20,NNE,28,0.0,4.0,86,0.00,,---,0.00,VWS V14.01,2013-04-18 19:12:00,
2013-04-18 15:17:00,52.4,48.7,30.20,NNE,28,3.0,4.0,87,0.00,,---,0.00,VWS V14.01,2013-04-18 19:17:00,
2013-04-18 15:22:00,52.5,48.8,30.19,NNE,13,1.0,4.0,87,0.00,,---,0.00,VWS V14.01,2013-04-18 19:22:00,
2013-04-18 15:27:00,52.6,48.8,30.19,NNE,17,0.0,4.0,87,0.00,,---,0.00,VWS V14.01,2013-04-18 19:27:00,
2013-04-18 15:30:00,52.7,49.2,30.19,North,11,3.0,4.0,88,0.00,,---,0.00,VWS V14.01,2013-04-18 19:30:00,
2013-04-18 15:32:00,52.7,49.0,30.19,NNE,26,1.0,3.0,87,0.00,,---,0.00,VWS V14.01,2013-04-18 19:32:00,
2013-04-18 15:37:00,52.7,49.0,30.19,NNW,332,1.0,3.0,87,0.00,,---,0.00,VWS V14.01,2013-04-18 19:37:00,
2013-04-18 15:42:00,52.8,48.7,30.19,NNE,32,1.0,4.0,86,0.00,,---,0.00,VWS V14.01,2013-04-18 19:42:00,
2013-04-18 15:47:00,52.8,48.7,30.18,NNE,30,2.0,4.0,86,0.00,,---,0.00,VWS V14.01,2013-04-18 19:47:00,
2013-04-18 15:52:00,52.9,48.8,30.18,NW,319,3.0,4.0,86,0.00,,---,0.00,VWS V14.01,2013-04-18 19:52:00,
2013-04-18 15:57:00,52.8,48.7,30.18,WSW,252,0.0,4.0,86,0.00,,---,0.00,VWS V14.01,2013-04-18 19:57:00,
2013-04-18 16:00:00,52.7,48.3,30.18,NNE,28,0.0,6.0,85,0.00,,---,0.00,VWS V14.01,2013-04-18 20:00:00,
2013-04-18 16:02:00,52.6,48.2,30.17,NNW,336,1.0,4.0,85,0.00,,---,0.00,VWS V14.01,2013-04-18 20:02:00,
2013-04-18 16:07:00,52.4,48.3,30.17,NW,326,2.0,4.0,86,0.00,,---,0.00,VWS V14.01,2013-04-18 20:07:00,
2013-04-18 16:12:00,52.5,48.4,30.17,NNE,13,0.0,4.0,86,0.00,,---,0.00,VWS V14.01,2013-04-18 20:12:00,
2013-04-18 16:17:00,52.6,48.5,30.17,North,5,3.0,5.0,86,0.00,,---,0.00,VWS V14.01,2013-04-18 20:17:00,
2013-04-18 16:23:00,52.4,48.3,30.17,North,355,0.0,5.0,86,0.00,,---,0.00,VWS V14.01,2013-04-18 20:23:00,
2013-04-18 16:28:00,52.3,48.2,30.17,WNW,300,3.0,5.0,86,0.00,,---,0.00,VWS V14.01,2013-04-18 20:28:00,
2013-04-18 16:30:00,52.2,48.2,30.17,NNW,331,3.0,5.0,86,0.00,,---,0.00,VWS V14.01,2013-04-18 20:30:00,
2013-04-18 16:33:00,52.1,48.4,30.17,NE,40,3.0,3.0,87,0.00,,---,0.00,VWS V14.01,2013-04-18 20:33:00,
2013-04-18 16:38:00,51.9,48.2,30.17,NNW,347,0.0,3.0,87,0.00,,---,0.00,VWS V14.01,2013-04-18 20:38:00,
2013-04-18 16:43:00,52.0,48.3,30.17,North,360,0.0,3.0,87,0.00,,---,0.00,VWS V14.01,2013-04-18 20:43:00,
2013-04-18 16:48:00,52.1,48.4,30.17,WNW,303,3.0,4.0,87,0.00,,---,0.00,VWS V14.01,2013-04-18 20:48:00,
2013-04-18 16:53:00,52.2,48.5,30.17,NW,305,3.0,5.0,87,0.00,,---,0.00,VWS V14.01,2013-04-18 20:53:00,
2013-04-18 16:58:00,52.4,49.0,30.17,North,360,1.0,5.0,88,0.00,,---,0.00,VWS V14.01,2013-04-18 20:58:00,
2013-04-18 17:00:00,52.5,48.8,30.16,North,5,3.0,5.0,87,0.00,,---,0.00,VWS V14.01,2013-04-18 21:00:00,
2013-04-18 17:03:00,52.5,48.8,30.16,West,261,0.0,3.0,87,0.00,,---,0.00,VWS V14.01,2013-04-18 21:03:00,
2013-04-18 17:08:00,52.6,48.8,30.16,NNE,24,3.0,6.0,87,0.00,,---,0.00,VWS V14.01,2013-04-18 21:08:00,
2013-04-18 17:13:00,52.5,48.8,30.16,NNW,336,3.0,6.0,87,0.00,,---,0.00,VWS V14.01,2013-04-18 21:13:00,
2013-04-18 17:18:00,52.4,49.0,30.16,NE,45,0.0,6.0,88,0.00,,---,0.00,VWS V14.01,2013-04-18 21:18:00,
2013-04-18 17:23:00,52.4,49.0,30.16,NNW,327,0.0,6.0,88,0.00,,---,0.00,VWS V14.01,2013-04-18 21:23:00,
2013-04-18 17:28:00,52.4,49.0,30.16,NW,309,0.0,6.0,88,0.00,,---,0.00,VWS V14.01,2013-04-18 21:28:00,
2013-04-18 17:30:00,52.4,49.0,30.17,NW,310,0.0,6.0,88,0.00,,---,0.00,VWS V14.01,2013-04-18 21:30:00,
2013-04-18 17:33:00,52.4,49.0,30.16,NNW,328,3.0,5.0,88,0.00,,---,0.00,VWS V14.01,2013-04-18 21:33:00,
2013-04-18 17:38:00,52.2,48.8,30.16,North,9,1.0,5.0,88,0.00,,---,0.00,VWS V14.01,2013-04-18 21:38:00,
2013-04-18 17:44:00,51.9,48.8,30.16,SW,230,0.0,5.0,89,0.00,,---,0.00,VWS V14.01,2013-04-18 21:44:00,
2013-04-18 17:49:00,51.7,48.6,30.16,WNW,292,2.0,5.0,89,0.00,,---,0.00,VWS V14.01,2013-04-18 21:49:00,
2013-04-18 17:54:00,51.4,48.6,30.15,West,263,2.0,5.0,90,0.00,,---,0.00,VWS V14.01,2013-04-18 21:54:00,
2013-04-18 17:59:00,51.2,48.4,30.15,NNE,13,1.0,5.0,90,0.00,,---,0.00,VWS V14.01,2013-04-18 21:59:00,
2013-04-18 18:00:00,51.2,48.4,30.15,NW,317,0.0,5.0,90,0.00,,---,0.00,VWS V14.01,2013-04-18 22:00:00,
2013-04-18 18:04:00,51.1,48.3,30.15,NNW,348,0.0,3.0,90,0.00,,---,0.00,VWS V14.01,2013-04-18 22:04:00,
2013-04-18 18:09:00,51.0,48.5,30.15,WNW,293,1.0,5.0,91,0.00,,---,0.00,VWS V14.01,2013-04-18 22:09:00,
2013-04-18 18:14:00,50.8,48.3,30.15,NNE,30,3.0,5.0,91,0.00,,---,0.00,VWS V14.01,2013-04-18 22:14:00,
2013-04-18 18:19:00,50.6,48.4,30.15,NE,46,2.0,5.0,92,0.00,,---,0.00,VWS V14.01,2013-04-18 22:19:00,
2013-04-18 18:25:00,50.4,48.2,30.14,NNW,327,0.0,6.0,92,0.00,,---,0.00,VWS V14.01,2013-04-18 22:25:00,
2013-04-18 18:30:00,50.3,48.1,30.14,WNW,291,0.0,6.0,92,0.00,,---,0.00,VWS V14.01,2013-04-18 22:30:00,
2013-04-18 18:35:00,50.2,48.3,30.14,North,349,0.0,4.0,93,0.00,,---,0.00,VWS V14.01,2013-04-18 22:35:00,
2013-04-18 18:40:00,50.1,48.2,30.14,North,9,0.0,4.0,93,0.00,,---,0.00,VWS V14.01,2013-04-18 22:40:00,
2013-04-18 18:45:00,50.0,48.3,30.15,NNW,338,0.0,4.0,94,0.00,,---,0.00,VWS V14.01,2013-04-18 22:45:00,
2013-04-18 18:50:00,49.8,48.2,30.15,North,360,2.0,4.0,94,0.00,,---,0.00,VWS V14.01,2013-04-18 22:50:00,
2013-04-18 18:55:00,49.7,48.0,30.15,North,5,0.0,4.0,94,0.00,,---,0.00,VWS V14.01,2013-04-18 22:55:00,
2013-04-18 19:00:00,49.6,48.2,30.15,West,259,1.0,1.0,95,0.00,,---,0.00,VWS V14.01,2013-04-18 23:00:00,
2013-04-18 19:05:00,49.5,48.1,30.14,NNE,21,0.0,2.0,95,0.00,,---,0.00,VWS V14.01,2013-04-18 23:05:00,
2013-04-18 19:11:00,49.4,48.0,30.14,West,263,1.0,2.0,95,0.00,,---,0.00,VWS V14.01,2013-04-18 23:11:00,
2013-04-18 19:16:00,49.3,47.9,30.14,ESE,110,0.0,3.0,95,0.00,,---,0.00,VWS V14.01,2013-04-18 23:16:00,
2013-04-18 19:21:00,49.2,48.1,30.14,West,272,0.0,3.0,96,0.00,,---,0.00,VWS V14.01,2013-04-18 23:21:00,
2013-04-18 19:26:00,49.1,48.0,30.14,NW,323,0.0,3.0,96,0.00,,---,0.00,VWS V14.01,2013-04-18 23:26:00,
2013-04-18 19:30:00,48.9,47.8,30.14,NW,323,0.0,3.0,96,0.00,,---,0.00,VWS V14.01,2013-04-18 23:30:00,
2013-04-18 19:31:00,48.9,47.8,30.14,NW,323,1.0,1.0,96,0.00,,---,0.00,VWS V14.01,2013-04-18 23:31:00,
2013-04-18 19:36:00,48.7,47.6,30.13,NNE,28,0.0,3.0,96,0.00,,---,0.00,VWS V14.01,2013-04-18 23:36:00,
2013-04-18 19:41:00,48.7,47.6,30.14,NW,323,0.0,3.0,96,0.00,,---,0.00,VWS V14.01,2013-04-18 23:41:00,
2013-04-18 19:46:00,48.7,47.6,30.13,NNE,29,1.0,3.0,96,0.00,,---,0.00,VWS V14.01,2013-04-18 23:46:00,
2013-04-18 19:51:00,48.7,47.9,30.13,NNE,15,0.0,3.0,97,0.00,,---,0.00,VWS V14.01,2013-04-18 23:51:00,
2013-04-18 19:56:00,48.6,47.8,30.13,NE,48,0.0,4.0,97,0.00,,---,0.00,VWS V14.01,2013-04-18 23:56:00,
2013-04-18 20:00:00,48.6,47.8,30.13,NNE,17,0.0,4.0,97,0.00,,---,0.00,VWS V14.01,2013-04-19 00:00:00,
2013-04-18 20:02:00,48.6,47.8,30.13,NNE,27,0.0,2.0,97,0.00,,---,0.00,VWS V14.01,2013-04-19 00:02:00,
2013-04-18 20:07:00,48.6,47.8,30.13,NNE,24,0.0,2.0,97,0.00,,---,0.00,VWS V14.01,2013-04-19 00:07:00,
2013-04-18 20:12:00,48.5,47.7,30.13,NNE,24,0.0,3.0,97,0.00,,---,0.00,VWS V14.01,2013-04-19 00:12:00,
2013-04-18 20:17:00,48.5,47.7,30.13,NNE,22,0.0,3.0,97,0.00,,---,0.00,VWS V14.01,2013-04-19 00:17:00,
2013-04-18 20:22:00,48.5,47.7,30.12,NE,44,0.0,3.0,97,0.00,,---,0.00,VWS V14.01,2013-04-19 00:22:00,
2013-04-18 20:27:00,48.5,47.7,30.12,NNE,28,1.0,4.0,97,0.00,,---,0.00,VWS V14.01,2013-04-19 00:27:00,
2013-04-18 20:30:00,48.5,47.7,30.12,NNW,342,0.0,4.0,97,0.00,,---,0.00,VWS V14.01,2013-04-19 00:30:00,
2013-04-18 20:32:00,48.5,47.7,30.12,NNW,346,2.0,2.0,97,0.00,,---,0.00,VWS V14.01,2013-04-19 00:32:00,
2013-04-18 20:37:00,48.5,48.0,30.12,NNE,30,0.0,3.0,98,0.00,,---,0.00,VWS V14.01,2013-04-19 00:37:00,
2013-04-18 20:43:00,48.5,48.0,30.12,SW,225,0.0,3.0,98,0.00,,---,0.00,VWS V14.01,2013-04-19 00:43:00,
2013-04-18 20:48:00,48.5,48.0,30.12,North,5,0.0,3.0,98,0.00,,---,0.00,VWS V14.01,2013-04-19 00:48:00,
2013-04-18 20:53:00,48.6,48.1,30.11,North,5,0.0,3.0,98,0.00,,---,0.00,VWS V14.01,2013-04-19 00:53:00,
2013-04-18 20:58:00,48.7,48.2,30.11,North,5,0.0,3.0,98,0.00,,---,0.00,VWS V14.01,2013-04-19 00:58:00,
2013-04-18 21:00:00,48.7,48.2,30.11,North,360,0.0,3.0,98,0.00,,---,0.00,VWS V14.01,2013-04-19 01:00:00,
2013-04-18 21:03:00,48.8,48.3,30.10,North,360,0.0,2.0,98,0.00,,---,0.00,VWS V14.01,2013-04-19 01:03:00,
2013-04-18 21:08:00,48.9,48.4,30.10,North,360,0.0,2.0,98,0.00,,---,0.00,VWS V14.01,2013-04-19 01:08:00,
2013-04-18 21:13:00,49.1,48.6,30.10,North,9,0.0,3.0,98,0.00,,---,0.00,VWS V14.01,2013-04-19 01:13:00,
2013-04-18 21:18:00,49.2,48.7,30.10,NNE,13,1.0,3.0,98,0.00,,---,0.00,VWS V14.01,2013-04-19 01:18:00,
2013-04-18 21:23:00,49.3,48.8,30.10,NNE,17,0.0,3.0,98,0.00,,---,0.00,VWS V14.01,2013-04-19 01:23:00,
2013-04-18 21:29:00,49.5,49.0,30.10,North,5,0.0,3.0,98,0.00,,---,0.00,VWS V14.01,2013-04-19 01:29:00,
2013-04-18 21:30:00,49.6,49.1,30.10,North,5,0.0,3.0,98,0.00,,---,0.00,VWS V14.01,2013-04-19 01:30:00,
2013-04-18 21:34:00,49.5,49.0,30.10,NNE,19,1.0,3.0,98,0.00,,---,0.00,VWS V14.01,2013-04-19 01:34:00,
2013-04-18 21:39:00,49.5,49.0,30.10,North,5,0.0,3.0,98,0.00,,---,0.00,VWS V14.01,2013-04-19 01:39:00,
2013-04-18 21:44:00,49.5,49.2,30.10,West,268,0.0,4.0,99,0.00,,---,0.00,VWS V14.01,2013-04-19 01:44:00,
2013-04-18 21:49:00,49.5,49.2,30.10,NW,314,1.0,4.0,99,0.00,,---,0.00,VWS V14.01,2013-04-19 01:49:00,
2013-04-18 21:54:00,49.6,49.3,30.10,SW,230,1.0,4.0,99,0.00,,---,0.00,VWS V14.01,2013-04-19 01:54:00,
2013-04-18 21:59:00,49.7,49.4,30.10,NE,35,1.0,4.0,99,0.00,,---,0.00,VWS V14.01,2013-04-19 01:59:00,
2013-04-18 22:00:00,49.7,49.4,30.10,NE,35,0.0,4.0,99,0.00,,---,0.00,VWS V14.01,2013-04-19 02:00:00,
2013-04-18 22:04:00,49.9,49.6,30.10,North,360,0.0,3.0,99,0.00,,---,0.00,VWS V14.01,2013-04-19 02:04:00,
2013-04-18 22:09:00,49.9,49.6,30.09,North,360,1.0,3.0,99,0.00,,---,0.00,VWS V14.01,2013-04-19 02:09:00,
2013-04-18 22:15:00,50.1,49.8,30.09,WNW,293,0.0,3.0,99,0.00,,---,0.00,VWS V14.01,2013-04-19 02:15:00,
2013-04-18 22:20:00,50.3,50.0,30.09,West,264,0.0,3.0,99,0.00,,---,0.00,VWS V14.01,2013-04-19 02:20:00,
2013-04-18 22:25:00,50.4,50.1,30.09,North,355,0.0,3.0,99,0.00,,---,0.00,VWS V14.01,2013-04-19 02:25:00,
2013-04-18 22:30:00,50.4,50.1,30.09,SSW,208,0.0,3.0,99,0.00,,---,0.00,VWS V14.01,2013-04-19 02:30:00,
2013-04-18 22:35:00,50.5,50.2,30.08,NNW,337,0.0,4.0,99,0.00,,---,0.00,VWS V14.01,2013-04-19 02:35:00,
2013-04-18 22:40:00,50.7,50.4,30.08,NNE,24,0.0,4.0,99,0.00,,---,0.00,VWS V14.01,2013-04-19 02:40:00,
2013-04-18 22:45:00,50.7,50.4,30.08,North,5,0.0,4.0,99,0.00,,---,0.00,VWS V14.01,2013-04-19 02:45:00,
2013-04-18 22:50:00,50.8,50.5,30.07,NNE,22,0.0,4.0,99,0.00,,---,0.00,VWS V14.01,2013-04-19 02:50:00,
2013-04-18 22:55:00,50.8,50.5,30.07,NW,325,0.0,4.0,99,0.00,,---,0.00,VWS V14.01,2013-04-19 02:55:00,
2013-04-18 23:00:00,50.8,50.5,30.07,NW,321,0.0,2.0,99,0.00,,---,0.00,VWS V14.01,2013-04-19 03:00:00,
2013-04-18 23:06:00,50.8,50.5,30.07,NNW,344,0.0,3.0,99,0.00,,---,0.00,VWS V14.01,2013-04-19 03:06:00,
2013-04-18 23:11:00,50.9,50.6,30.07,NNW,327,0.0,3.0,99,0.00,,---,0.00,VWS V14.01,2013-04-19 03:11:00,
2013-04-18 23:16:00,51.0,50.7,30.06,NNW,327,0.0,3.0,99,0.00,,---,0.00,VWS V14.01,2013-04-19 03:16:00,
2013-04-18 23:21:00,51.1,50.8,30.06,NNW,327,0.0,3.0,99,0.00,,---,0.00,VWS V14.01,2013-04-19 03:21:00,
2013-04-18 23:26:00,51.3,51.0,30.06,NNW,327,0.0,3.0,99,0.00,,---,0.00,VWS V14.01,2013-04-19 03:26:00,
2013-04-18 23:30:00,51.4,51.1,30.06,NNW,327,0.0,3.0,99,0.00,,---,0.00,VWS V14.01,2013-04-19 03:30:00,
2013-04-18 23:31:00,51.4,51.1,30.06,NNW,327,0.0,1.0,99,0.00,,---,0.00,VWS V14.01,2013-04-19 03:31:00,
2013-04-18 23:36:00,51.5,51.2,30.05,NNW,327,0.0,2.0,99,0.00,,---,0.00,VWS V14.01,2013-04-19 03:36:00,
2013-04-18 23:41:00,51.7,51.4,30.05,WNW,300,0.0,2.0,99,0.00,,---,0.00,VWS V14.01,2013-04-19 03:41:00,
2013-04-18 23:46:00,51.9,51.6,30.05,SW,217,0.0,2.0,99,0.00,,---,0.00,VWS V14.01,2013-04-19 03:46:00,
2013-04-18 23:52:00,51.9,51.6,30.05,NNE,23,0.0,2.0,99,0.00,,---,0.00,VWS V14.01,2013-04-19 03:52:00,
2013-04-18 23:57:00,52.0,51.7,30.05,West,278,1.0,2.0,99,0.00,,---,0.00,VWS V14.01,2013-04-19 03:57:00,